TimeCDT,TemperatureF,Dew PointF,Humidity,Sea Level PressureIn,VisibilityMPH,Wind Direction,Wind SpeedMPH,Gust SpeedMPH,PrecipitationIn,Events,Conditions,WindDirDegrees,DateUTC
12:15 AM,87.8,62.6,43,29.95,10.0,Calm,Calm,-,N/A,,Clear,0,2013-07-13 05:15:00
12:35 AM,86.0,64.4,48,29.96,10.0,East,5.8,-,N/A,,Clear,90,2013-07-13 05:35:00
12:55 AM,86.0,64.4,48,29.96,10.0,East,9.2,-,N/A,,Clear,90,2013-07-13 05:55:00
1:15 AM,86.0,64.4,48,29.97,10.0,East,6.9,-,N/A,,Clear,90,2013-07-13 06:15:00
1:35 AM,86.0,64.4,48,29.97,10.0,East,8.1,-,N/A,,Clear,100,2013-07-13 06:35:00
1:55 AM,86.0,66.2,51,29.96,10.0,East,8.1,-,N/A,,Clear,100,2013-07-13 06:55:00
2:15 AM,84.2,66.2,55,29.96,10.0,ESE,9.2,-,N/A,,Clear,110,2013-07-13 07:15:00
2:35 AM,84.2,66.2,55,29.96,10.0,East,6.9,-,N/A,,Clear,100,2013-07-13 07:35:00
2:55 AM,82.4,66.2,58,29.96,10.0,ESE,9.2,-,N/A,,Clear,110,2013-07-13 07:55:00
3:15 AM,82.4,66.2,58,29.96,10.0,ESE,9.2,-,N/A,,Clear,120,2013-07-13 08:15:00
3:35 AM,82.4,66.2,58,29.96,10.0,ESE,9.2,-,N/A,,Clear,110,2013-07-13 08:35:00
3:55 AM,82.4,66.2,58,29.96,10.0,SE,10.4,-,N/A,,Clear,130,2013-07-13 08:55:00
4:15 AM,82.4,68.0,62,29.96,10.0,SE,6.9,-,N/A,,Clear,130,2013-07-13 09:15:00
4:35 AM,80.6,68.0,65,29.96,10.0,ESE,8.1,-,N/A,,Clear,120,2013-07-13 09:35:00
4:55 AM,80.6,68.0,65,29.96,10.0,SE,8.1,-,N/A,,Clear,130,2013-07-13 09:55:00
5:15 AM,80.6,68.0,65,29.97,10.0,ESE,5.8,-,N/A,,Clear,120,2013-07-13 10:15:00
5:35 AM,80.6,68.0,65,29.97,10.0,ESE,10.4,-,N/A,,Clear,120,2013-07-13 10:35:00
5:55 AM,80.6,68.0,65,29.98,10.0,SE,9.2,-,N/A,,Clear,130,2013-07-13 10:55:00
6:15 AM,78.8,68.0,69,29.99,10.0,ESE,5.8,-,N/A,,Clear,120,2013-07-13 11:15:00
6:35 AM,78.8,68.0,69,29.99,10.0,ESE,4.6,-,N/A,,Clear,120,2013-07-13 11:35:00
6:50 AM,80.6,68.0,65,30.00,10.0,ESE,6.9,-,N/A,,Clear,120,2013-07-13 11:50:00
6:55 AM,78.8,68.0,69,30.00,10.0,ESE,8.1,-,N/A,,Clear,120,2013-07-13 11:55:00
7:50 AM,82.4,68.0,62,30.01,10.0,East,8.1,-,N/A,,Clear,100,2013-07-13 12:50:00
8:55 AM,84.2,66.2,55,30.03,10.0,ESE,8.1,-,N/A,,Clear,110,2013-07-13 13:55:00
9:55 AM,84.2,66.2,55,30.02,10.0,ESE,9.2,-,N/A,,Clear,120,2013-07-13 14:55:00
10:50 AM,89.6,66.2,46,30.01,10.0,SSE,8.1,-,N/A,,Clear,150,2013-07-13 15:50:00
11:50 AM,91.4,66.2,43,30.00,10.0,SE,6.9,-,N/A,,Clear,130,2013-07-13 16:50:00
12:50 PM,95.0,64.4,36,29.99,10.0,Calm,Calm,-,N/A,,Clear,0,2013-07-13 17:50:00
1:57 PM,96.8,62.6,32,29.96,10.0,Calm,Calm,-,N/A,,Clear,0,2013-07-13 18:57:00
2:58 PM,98.6,62.6,30,29.93,10.0,Calm,Calm,-,N/A,,Clear,0,2013-07-13 19:58:00
3:50 PM,98.6,62.6,30,29.92,10.0,Calm,Calm,-,N/A,,Clear,0,2013-07-13 20:50:00
4:54 PM,98.6,60.8,29,29.91,10.0,East,9.2,16.1,N/A,,Clear,90,2013-07-13 21:54:00
5:50 PM,98.6,60.8,29,29.90,10.0,East,9.2,-,N/A,,Clear,90,2013-07-13 22:50:00
9:15 PM,89.6,53.6,29,29.92,10.0,East,11.5,-,N/A,,Clear,80,2013-07-14 02:15:00
9:35 PM,87.8,55.4,33,29.92,10.0,East,10.4,-,N/A,,Clear,90,2013-07-14 02:35:00
9:55 PM,87.8,55.4,33,29.93,10.0,East,11.5,-,N/A,,Clear,90,2013-07-14 02:55:00
10:15 PM,86.0,55.4,35,29.94,10.0,East,11.5,-,N/A,,Clear,100,2013-07-14 03:15:00
10:35 PM,86.0,55.4,35,29.94,10.0,East,10.4,-,N/A,,Clear,100,2013-07-14 03:35:00
10:55 PM,86.0,57.2,37,29.94,10.0,East,11.5,-,N/A,,Clear,100,2013-07-14 03:55:00
11:15 PM,86.0,57.2,37,29.95,10.0,East,10.4,-,N/A,,Clear,100,2013-07-14 04:15:00
11:35 PM,84.2,55.4,37,29.96,10.0,ESE,8.1,-,N/A,,Clear,110,2013-07-14 04:35:00
11:55 PM,82.4,53.6,37,29.97,10.0,ESE,8.1,-,N/A,,Clear,110,2013-07-14 04:55:00